When you browse on this site, cookies collect data to enhance your experience and personalize the content and advertising you see.
Visit our Privacy Policy to learn more. By continuing to use the site, you agree to this use of cookies and data.
  • In Österreich
  • Länderverzeichnis
  • Für 7 Tage
  • Wassertemperatur
  • Satellitenkarten
  • Wetterkarte
  • News
  • Widgets
  • user-avatar
    Anmelden

    Stündliche Wetter Kipungo

    Heute, 17 November, Samstag

    Zeit Temperatur Niederschläge Wind Luftdruck Luftfeuchtigkeit
    00:00 +23°C° 0 mm 2 m/S 653 mmHg 61%
    01:00 +21°C° 0 mm 2 m/S 653 mmHg 79%
    02:00 +21°C° 0 mm 2 m/S 653 mmHg 82%
    03:00 +20°C° 0 mm 2 m/S 653 mmHg 86%
    04:00 +20°C° 0 mm 2 m/S 653 mmHg 89%
    05:00 +21°C° 0 mm 2 m/S 653 mmHg 82%
    06:00 +23°C° 0 mm 2 m/S 654 mmHg 75%
    07:00 +24°C° 0 mm 2 m/S 654 mmHg 68%
    08:00 +29°C° 0 mm 1 m/S 656 mmHg 53%
    09:00 +33°C° 0 mm 1 m/S 657 mmHg 38%
    10:00 +39°C° 0 mm 1 m/S 658 mmHg 23%
    11:00 +39°C° 0 mm 1 m/S 657 mmHg 19%
    12:00 +40°C° 0 mm 1 m/S 656 mmHg 16%
    13:00 +40°C° 0 mm 2 m/S 655 mmHg 13%
    14:00 +39°C° 0 mm 2 m/S 655 mmHg 14%
    15:00 +38°C° 0 mm 2 m/S 654 mmHg 15%
    16:00 +37°C° 0 mm 2 m/S 654 mmHg 15%
    17:00 +35°C° 0 mm 3 m/S 654 mmHg 23%
    18:00 +31°C° 0 mm 3 m/S 654 mmHg 31%
    19:00 +29°C° 0 mm 3 m/S 653 mmHg 38%
    20:00 +27°C° 0 mm 3 m/S 654 mmHg 47%
    21:00 +26°C° 0 mm 3 m/S 654 mmHg 56%
    22:00 +25°C° 0 mm 3 m/S 654 mmHg 64%
    23:00 +24°C° 0 mm 3 m/S 654 mmHg 67%

    Morgen, 18 November, Sonntag

    Zeit Temperatur Niederschläge Wind Luftdruck Luftfeuchtigkeit
    00:00 +22°C° 0 mm 3 m/S 654 mmHg 70%
    01:00 +22°C° 0 mm 3 m/S 654 mmHg 74%
    02:00 +21°C° 0 mm 2 m/S 653 mmHg 75%
    03:00 +20°C° 0 mm 2 m/S 653 mmHg 77%
    04:00 +20°C° 0 mm 2 m/S 653 mmHg 79%
    05:00 +21°C° 0 mm 2 m/S 653 mmHg 72%
    06:00 +23°C° 0 mm 2 m/S 654 mmHg 66%
    07:00 +24°C° 0 mm 2 m/S 655 mmHg 59%
    08:00 +28°C° 0 mm 1 m/S 655 mmHg 48%
    09:00 +32°C° 0 mm 1 m/S 656 mmHg 36%
    10:00 +36°C° 0 mm 1 m/S 657 mmHg 25%
    11:00 +39°C° 0 mm 1 m/S 657 mmHg 21%
    12:00 +41°C° 0 mm 1 m/S 656 mmHg 18%
    13:00 +43°C° 0 mm 1 m/S 656 mmHg 14%
    14:00 +41°C° 0 mm 1 m/S 655 mmHg 15%
    15:00 +39°C° 0 mm 1 m/S 654 mmHg 16%
    16:00 +37°C° 0 mm 2 m/S 653 mmHg 17%
    17:00 +35°C° 0 mm 2 m/S 653 mmHg 24%
    18:00 +31°C° 0 mm 3 m/S 653 mmHg 30%
    19:00 +29°C° 0 mm 3 m/S 653 mmHg 36%
    20:00 +28°C° 0.2 mm 3 m/S 654 mmHg 42%
    21:00 +27°C° 0.2 mm 3 m/S 654 mmHg 47%
    22:00 +26°C° 0.2 mm 2 m/S 655 mmHg 52%
    23:00 +25°C° 0 mm 2 m/S 654 mmHg 56%

    übermorgen, 19 November, Montag

    Zeit Temperatur Niederschläge Wind Luftdruck Luftfeuchtigkeit
    00:00 +24°C° 0 mm 2 m/S 654 mmHg 59%
    01:00 +23°C° 0 mm 1 m/S 654 mmHg 63%
    02:00 +23°C° 0 mm 1 m/S 653 mmHg 65%
    03:00 +22°C° 0 mm 1 m/S 653 mmHg 67%
    04:00 +21°C° 0 mm 1 m/S 653 mmHg 69%
    05:00 +23°C° 0 mm 1 m/S 653 mmHg 64%
    06:00 +24°C° 0 mm 1 m/S 654 mmHg 59%
    07:00 +25°C° 0 mm 1 m/S 654 mmHg 54%
    08:00 +29°C° 0 mm 1 m/S 655 mmHg 43%
    09:00 +33°C° 0 mm 1 m/S 656 mmHg 33%
    10:00 +37°C° 0 mm 1 m/S 657 mmHg 23%
    11:00 +39°C° 0 mm 1 m/S 656 mmHg 21%
    12:00 +39°C° 0 mm 2 m/S 656 mmHg 19%
    13:00 +40°C° 0 mm 2 m/S 655 mmHg 16%
    14:00 +38°C° 0 mm 2 m/S 654 mmHg 18%
    15:00 +37°C° 0 mm 2 m/S 653 mmHg 20%
    16:00 +35°C° 0 mm 2 m/S 653 mmHg 23%
    17:00 +32°C° 0.1 mm 2 m/S 653 mmHg 28%
    18:00 +30°C° 0.1 mm 2 m/S 653 mmHg 33%
    19:00 +28°C° 0.1 mm 3 m/S 653 mmHg 38%
    20:00 +27°C° 0 mm 2 m/S 653 mmHg 43%
    21:00 +26°C° 0 mm 2 m/S 654 mmHg 47%
    22:00 +25°C° 0 mm 1 m/S 654 mmHg 52%
    23:00 +24°C° 0 mm 2 m/S 654 mmHg 57%

    20 November, Dienstag

    Zeit Temperatur Niederschläge Wind Luftdruck Luftfeuchtigkeit
    00:00 +23°C° 0 mm 2 m/S 653 mmHg 61%
    01:00 +21°C° 0 mm 2 m/S 652 mmHg 66%
    02:00 +21°C° 0.1 mm 2 m/S 652 mmHg 67%
    03:00 +21°C° 0.1 mm 2 m/S 652 mmHg 67%
    04:00 +20°C° 0.1 mm 2 m/S 652 mmHg 68%
    05:00 +23°C° 0 mm 2 m/S 653 mmHg 63%
    06:00 +24°C° 0 mm 1 m/S 654 mmHg 58%
    07:00 +25°C° 0 mm 1 m/S 654 mmHg 52%
    08:00 +27°C° 0 mm 1 m/S 655 mmHg 45%
    09:00 +30°C° 0 mm 1 m/S 656 mmHg 38%
    10:00 +32°C° 0 mm 1 m/S 656 mmHg 31%
    11:00 +35°C° 0 mm 1 m/S 656 mmHg 26%
    12:00 +39°C° 0 mm 1 m/S 656 mmHg 22%
    13:00 +42°C° 0 mm 1 m/S 656 mmHg 18%
    14:00 +40°C° 0 mm 1 m/S 655 mmHg 20%
    15:00 +36°C° 0 mm 1 m/S 654 mmHg 23%
    16:00 +35°C° 0 mm 2 m/S 653 mmHg 25%
    17:00 +32°C° 0.1 mm 2 m/S 653 mmHg 30%
    18:00 +30°C° 0.1 mm 2 m/S 653 mmHg 35%
    19:00 +29°C° 0.1 mm 3 m/S 653 mmHg 40%
    20:00 +27°C° 0.2 mm 3 m/S 654 mmHg 46%
    21:00 +26°C° 0.2 mm 3 m/S 654 mmHg 52%
    22:00 +24°C° 0.2 mm 2 m/S 654 mmHg 59%
    23:00 +24°C° 0.5 mm 3 m/S 654 mmHg 63%

    21 November, Mittwoch

    Zeit Temperatur Niederschläge Wind Luftdruck Luftfeuchtigkeit
    00:00 +22°C° 0.5 mm 3 m/S 654 mmHg 67%
    01:00 +22°C° 0.5 mm 3 m/S 653 mmHg 72%
    02:00 +21°C° 0.1 mm 3 m/S 653 mmHg 72%
    03:00 +21°C° 0.1 mm 2 m/S 653 mmHg 72%
    04:00 +21°C° 0.1 mm 2 m/S 653 mmHg 72%
    05:00 +21°C° 0 mm 2 m/S 653 mmHg 69%
    06:00 +23°C° 0 mm 2 m/S 654 mmHg 66%
    07:00 +23°C° 0 mm 2 m/S 654 mmHg 62%
    08:00 +26°C° 0 mm 2 m/S 655 mmHg 53%
    09:00 +29°C° 0 mm 1 m/S 655 mmHg 43%
    10:00 +31°C° 0 mm 1 m/S 655 mmHg 33%
    11:00 +34°C° 0 mm 1 m/S 655 mmHg 29%
    12:00 +37°C° 0 mm 1 m/S 655 mmHg 24%
    13:00 +41°C° 0 mm 1 m/S 655 mmHg 19%
    14:00 +40°C° 0 mm 1 m/S 655 mmHg 20%
    15:00 +37°C° 0 mm 1 m/S 654 mmHg 21%
    16:00 +35°C° 0 mm 1 m/S 653 mmHg 22%
    17:00 +34°C° 0.1 mm 2 m/S 653 mmHg 27%
    18:00 +31°C° 0.1 mm 2 m/S 653 mmHg 32%
    19:00 +29°C° 0.1 mm 3 m/S 653 mmHg 37%
    20:00 +28°C° 0 mm 3 m/S 654 mmHg 41%
    21:00 +27°C° 0 mm 3 m/S 654 mmHg 44%
    22:00 +26°C° 0 mm 3 m/S 654 mmHg 48%
    23:00 +25°C° 0 mm 3 m/S 654 mmHg 52%

    22 November, Donnerstag

    Zeit Temperatur Niederschläge Wind Luftdruck Luftfeuchtigkeit
    00:00 +24°C° 0 mm 2 m/S 653 mmHg 56%
    01:00 +23°C° 0 mm 1 m/S 652 mmHg 60%
    02:00 +22°C° 0 mm 1 m/S 652 mmHg 62%
    03:00 +21°C° 0 mm 2 m/S 652 mmHg 64%
    04:00 +20°C° 0 mm 2 m/S 652 mmHg 66%
    05:00 +21°C° 0 mm 2 m/S 652 mmHg 62%
    06:00 +23°C° 0 mm 2 m/S 653 mmHg 57%
    07:00 +24°C° 0 mm 2 m/S 654 mmHg 52%
    08:00 +28°C° 0 mm 2 m/S 654 mmHg 42%
    09:00 +32°C° 0 mm 1 m/S 655 mmHg 31%
    10:00 +35°C° 0 mm 1 m/S 656 mmHg 20%
    11:00 +37°C° 0 mm 1 m/S 656 mmHg 18%
    12:00 +41°C° 0 mm 1 m/S 655 mmHg 16%
    13:00 +43°C° 0 mm 1 m/S 655 mmHg 14%
    14:00 +41°C° 0 mm 1 m/S 654 mmHg 15%
    15:00 +39°C° 0 mm 1 m/S 653 mmHg 16%
    16:00 +38°C° 0 mm 2 m/S 652 mmHg 16%
    17:00 +35°C° 0 mm 3 m/S 653 mmHg 23%
    18:00 +33°C° 0 mm 4 m/S 653 mmHg 30%
    19:00 +29°C° 0 mm 5 m/S 653 mmHg 36%
    20:00 +28°C° 0 mm 4 m/S 653 mmHg 43%
    21:00 +26°C° 0 mm 4 m/S 653 mmHg 49%
    22:00 +25°C° 0 mm 3 m/S 653 mmHg 55%
    23:00 +24°C° 0 mm 3 m/S 652 mmHg 58%
    Mehr zeigen